Find Starlink 34353

NORAD ID: 64278 Int'l Des: 2025-120 Owner: SPXS Country: US Constellation: starlink operational
LEOCIRCULAR

Live Position

Loading 3D Globe...

About Starlink 34353

Description loading...

Upcoming Passes

Passes for default location (London). Set your location on the main map for personalized predictions.

Altitude History

Loading altitude history...

Two-Line Element Set

1 64278U 25120Y 26106.25007803 .00009326 00000-0 32659-3 0 9995
2 64278 53.1586 302.4498 0001299 73.6161 286.4983 15.30199259 49661
Epoch: Apr 16, 2026 • Age: 17 hours

Current Status

Altitude 489.4 km
Velocity 7.62 km/s
Sub-Earth Point -41.11°S, 68.42°E
Launch Date Jun 4, 2025
Age 0.8 years
Type internet

Technical Details

Classification Payload
Mass 575.00 kg
Dry Mass 530.00 kg
Total Mass 575.00 kg
Length 0.30 m
Diameter 4.10 m
Span 29.00 m
Shape Box + pan
Manufacturer SPXS
Bus Type Starlink V2MO
Phase Status In Orbit
Owner/State SPXS/US

Most Searched